Location: Camaret
(48.2753°N, 4.5961°W)
Time: 00:24:03
(UTC+00:00)

MOS 1 Rocket - Visible Passes

Search period start: 27 February 2021 00:00
Search period end: 09 March 2021 00:00
Orbit: 614 x 830 km, 97.4° (Epoch: 26 February)

Date Brightness Start Highest point End Pass type
(mag) Time Alt. Az. Time Alt. Az. Time Alt. Az.
27 Feb 4.0 04:59:12 10° SSE 05:03:20 50° ENE 05:07:37 10° N visible
27 Feb 3.6 18:34:57 10° NNE 18:39:52 83° WNW 18:45:04 10° SSW visible
27 Feb 6.4 20:14:58 10° NNW 20:17:27 14° WNW 20:19:59 10° W visible
28 Feb 5.8 04:11:22 10° ESE 04:14:24 19° ENE 04:17:31 10° NNE visible
28 Feb 3.2 05:48:05 10° S 05:52:16 52° W 05:56:37 10° NNW visible
28 Feb 5.3 19:24:16 10° N 19:28:40 33° WNW 19:33:13 10° SW visible
01 Mar 4.0 04:58:48 10° SSE 05:02:58 51° ENE 05:07:18 10° N visible
01 Mar 3.7 18:34:34 10° N 18:39:34 83° WNW 18:44:49 10° SSW visible
01 Mar 6.5 20:14:34 10° NNW 20:17:07 14° WNW 20:19:43 10° W visible
02 Mar 5.8 04:10:56 10° ESE 04:14:02 19° ENE 04:17:13 10° NNE visible
02 Mar 3.2 05:47:42 10° S 05:51:54 52° W 05:56:18 10° NNW visible
02 Mar 5.4 19:23:55 10° N 19:28:20 33° WNW 19:32:58 10° SW visible
03 Mar 4.0 04:58:24 10° SSE 05:02:36 52° ENE 05:06:59 10° N visible
03 Mar 3.7 18:34:13 10° N 18:39:16 82° WNW 18:44:34 10° SSW visible
03 Mar 6.5 20:14:11 10° NNW 20:16:48 14° WNW 20:19:28 10° W visible
04 Mar 5.8 04:10:30 10° ESE 04:13:40 20° ENE 04:16:56 10° NNE visible
04 Mar 3.2 05:47:19 10° S 05:51:32 52° W 05:55:59 10° NNW visible
04 Mar 5.4 19:23:33 10° N 19:28:02 33° WNW 19:32:42 10° SW visible
05 Mar 4.0 04:58:00 10° SSE 05:02:14 53° ENE 05:06:41 10° N visible
05 Mar 3.8 18:33:51 10° N 18:38:58 81° WNW 18:44:18 10° SSW visible
05 Mar 6.5 20:13:49 10° NNW 20:16:29 14° WNW 20:19:12 10° W visible
06 Mar 5.8 04:10:04 10° ESE 04:13:18 20° ENE 04:16:39 10° NNE visible
06 Mar 3.3 05:46:56 10° S 05:51:10 51° W 05:55:40 10° NNW visible
06 Mar 5.4 19:23:12 10° N 19:27:43 33° WNW 19:32:26 10° SW visible
07 Mar 4.0 04:57:35 10° SSE 05:01:52 54° ENE 05:06:23 10° N visible
07 Mar 3.8 18:33:30 10° N 18:38:40 80° WNW 18:44:02 10° SSW visible
07 Mar 6.5 20:13:27 10° NNW 20:16:09 15° WNW 20:18:56 10° W visible
08 Mar 5.8 04:09:38 10° ESE 04:12:57 21° ENE 04:16:23 10° NNE visible
08 Mar 3.3 05:46:32 10° S 05:50:49 51° W 05:55:21 10° NNW visible
08 Mar 5.5 19:22:50 10° N 19:27:25 33° WNW 19:32:09 10° SW visible
